Regional Weather Roundup
Issued by NWS Midland/Odessa, TX

Skip options and go directly to product.
Home | Oldest Version | Next Version | Current Version | All | Text Only | Save Text | Print | Product List | Glossary On

Skip product version selection by date and time.   
533
ASUS44 KMAF 211401
RWRMAF
MIDLAND AREA WEATHER ROUNDUP
NATIONAL WEATHER SERVICE MIDLAND TX
800 AM CST SAT JAN 21 2017

...IN SOUTHWEST TEXAS AND SOUTHEAST NEW MEXICO...

CITY           SKY/WX    TMP DP  RH WIND       PRES   REMARKS
ALPINE         PTCLDY    51  27  40 SW18G25   29.68S
ANDREWS        MOCLDY    50  34  53 SW13G18   29.53F
ARTESIA        PTCLDY    45  37  76 SW8G15    29.52R
BIG SPRING     PTCLDY    44  38  82 S7        29.58S WCI  40
CARLSBAD       MOCLDY    49  38  65 SE13G18   29.51R
DRYDEN           N/A     49  29  46 W6        29.58S
FORT STOCKTON  CLEAR     52  28  39 S10       29.58F
GUAD PASS      CLOUDY    40  37  89 SW21      29.56S WCI  30
HOBBS          LGT RAIN  45  39  81 S10       29.53F WCI  39
MARFA          CLEAR     42  27  55 S9        29.66F WCI  37
MIDLAND AIRPK  CLOUDY    51  35  54 S8        29.54F
MIDLAND INTL   PTCLDY    49  34  56 S13       29.53F
ODESSA         PTCLDY    47  35  63 S9        29.55F
PECOS          PTCLDY    42  35  75 SE7       29.55S WCI  37
PRESIDIO       FAIR      51  26  37 E3        29.63F
SEMINOLE       PTCLDY    46  37  72 SW9       29.53S
SNYDER         MOCLDY    44  37  75 S6        29.55S
WINK           CLOUDY    46  36  68 S6        29.53S
$$
...OTHER STATIONS IN TEXAS...

CITY           SKY/WX    TMP DP  RH WIND       PRES   REMARKS
ABILENE        CLOUDY    49  38  65 S6        29.55F
AMARILLO       PTCLDY    39  33  79 S9        29.45F WCI  33
AUSTIN         FOG       59  58  96 S3        29.60R VSB 1/4
BROWNSVILLE    FOG       66  65  96 S10       29.65R VSB 1/4
CORPUS CHRISTI CLOUDY    64  64 100 S9        29.61R FOG
DALLAS FTW     CLOUDY    52  50  93 SW15      29.59R
DEL RIO        FOG       51  51 100 CALM      29.60R VSB<1/4
EL PASO        LGT RAIN  44  37  76 SW18G25   29.60R WCI  36
HOUSTON INT    FOG       65  64  97 S3        29.64R VSB 1/4
LUBBOCK        CLOUDY    48  37  65 SW14      29.47F
SAN ANGELO     MOCLDY    49  45  86 CALM      29.57S
SAN ANTONIO    CLOUDY    59  58  96 S7        29.60S FOG
WACO           CLOUDY    57  57 100 SW7       29.61S FOG
WICHITA FALLS  NOT AVBL
$$
...OTHER LOCATIONS IN NEW MEXICO...

CITY           SKY/WX    TMP DP  RH WIND       PRES   REMARKS
ALAMAGORDO     CLOUDY    41  41 100 SE18      29.58S WCI  32
ALBUQUERQUE    CLOUDY    38  37  97 S13       29.43F WCI  30
CANNON AFB     CLOUDY    36  36 100 SW6       29.46S WCI  31
CLOVIS         CLOUDY    32  28  86 SW5       29.46F WCI  27
HOLLOMAN AFB   CLOUDY    43  39  87 S14G24    29.57F WCI  36
ROSWELL        PTCLDY    45  35  68 S15       29.48S WCI  38
RUIDOSO        LGT SNOW  32  32 100 SW16      29.49R WCI  21
SANTA FE       CLOUDY    31  30  96 SE7       29.42F WCI  24
TRUTH OR CONSE PTCLDY    36  34  92 SW12      29.50R WCI  28
TUCUMCARI      MOCLDY    36  32  85 CALM      29.44R
$$

  • National Weather Service
  • Southern Region Headquarters
  • 819 Taylor Street, Room 10A06
  • Fort Worth, TX 76102
  • Page Author: NWS Fort Worth
  • Web Master: SR-SRH.Webmaster@noaa.gov
  •  
  • Page last modified: 30-Sep-2016 6:36 PM UTC
USA.gov is the U.S. government's official web portal to all federal, state and local government web resources and services.